TimeEDT,TemperatureF,Dew PointF,Humidity,Sea Level PressureIn,VisibilityMPH,Wind Direction,Wind SpeedMPH,Gust SpeedMPH,PrecipitationIn,Events,Conditions,WindDirDegrees,DateUTC
12:52 AM,72.0,69.1,91,29.53,7.0,SE,9.2,-,N/A,,Overcast,140,2013-06-29 04:52:00
1:52 AM,72.0,69.1,91,29.52,7.0,SE,5.8,-,N/A,,Mostly Cloudy,140,2013-06-29 05:52:00
2:10 AM,71.6,69.8,94,29.52,7.0,ESE,3.5,-,N/A,,Mostly Cloudy,120,2013-06-29 06:10:00
2:37 AM,71.6,68.0,88,29.52,7.0,SSE,5.8,-,N/A,,Scattered Clouds,150,2013-06-29 06:37:00
2:52 AM,71.1,68.0,90,29.52,7.0,SE,6.9,-,N/A,,Partly Cloudy,130,2013-06-29 06:52:00
3:27 AM,71.6,68.0,88,29.52,7.0,SSE,4.6,-,N/A,,Mostly Cloudy,150,2013-06-29 07:27:00
3:39 AM,71.6,68.0,88,29.52,6.0,Calm,Calm,-,N/A,,Overcast,0,2013-06-29 07:39:00
3:52 AM,71.1,68.0,90,29.53,6.0,Calm,Calm,-,N/A,,Overcast,0,2013-06-29 07:52:00
4:52 AM,70.0,68.0,93,29.53,8.0,SSE,5.8,-,N/A,,Scattered Clouds,150,2013-06-29 08:52:00
5:52 AM,69.1,66.9,93,29.55,4.0,Calm,Calm,-,N/A,,Clear,0,2013-06-29 09:52:00
6:23 AM,71.6,68.0,88,29.56,6.0,SSE,4.6,-,N/A,,Scattered Clouds,160,2013-06-29 10:23:00
6:45 AM,71.6,68.0,88,29.56,8.0,SSE,5.8,-,N/A,,Mostly Cloudy,150,2013-06-29 10:45:00
6:52 AM,72.0,68.0,87,29.56,8.0,SE,5.8,-,N/A,,Mostly Cloudy,140,2013-06-29 10:52:00
7:04 AM,71.6,68.0,88,29.57,8.0,SSE,5.8,-,N/A,,Scattered Clouds,150,2013-06-29 11:04:00
7:12 AM,73.4,68.0,83,29.57,9.0,SSE,4.6,-,N/A,,Mostly Cloudy,150,2013-06-29 11:12:00
7:52 AM,73.9,68.0,82,29.56,10.0,SSE,5.8,-,N/A,,Overcast,160,2013-06-29 11:52:00
8:52 AM,77.0,66.9,71,29.57,10.0,SW,3.5,-,N/A,,Mostly Cloudy,220,2013-06-29 12:52:00
9:52 AM,75.9,66.9,74,29.58,10.0,Variable,5.8,-,N/A,,Mostly Cloudy,0,2013-06-29 13:52:00
10:01 AM,75.2,66.2,73,29.59,10.0,SSW,3.5,-,N/A,,Mostly Cloudy,210,2013-06-29 14:01:00
10:52 AM,75.0,69.1,82,29.59,10.0,South,5.8,-,0.00,Rain,Light Rain,170,2013-06-29 14:52:00
11:00 AM,75.2,69.8,83,29.59,10.0,SSE,5.8,-,0.00,,Overcast,160,2013-06-29 15:00:00
11:52 AM,77.0,69.1,76,29.60,10.0,SSW,8.1,-,0.00,,Mostly Cloudy,200,2013-06-29 15:52:00
12:35 PM,80.6,66.2,61,29.59,10.0,SSW,12.7,20.7,N/A,,Scattered Clouds,210,2013-06-29 16:35:00
12:52 PM,82.0,66.0,58,29.59,10.0,SSW,12.7,20.7,N/A,,Clear,210,2013-06-29 16:52:00
1:52 PM,82.9,64.9,54,29.59,10.0,South,13.8,20.7,N/A,,Partly Cloudy,180,2013-06-29 17:52:00
2:52 PM,82.9,66.0,56,29.59,10.0,SSW,11.5,20.7,N/A,,Mostly Cloudy,200,2013-06-29 18:52:00
3:52 PM,82.9,64.0,53,29.59,10.0,SSW,11.5,21.9,N/A,,Clear,210,2013-06-29 19:52:00
4:52 PM,82.9,64.0,53,29.60,10.0,South,16.1,23.0,N/A,,Clear,190,2013-06-29 20:52:00
5:52 PM,82.9,66.0,56,29.61,10.0,South,15.0,-,N/A,,Partly Cloudy,170,2013-06-29 21:52:00
6:52 PM,80.1,66.9,64,29.62,10.0,SSW,10.4,19.6,N/A,,Clear,200,2013-06-29 22:52:00
7:52 PM,77.0,66.0,69,29.65,10.0,South,10.4,18.4,N/A,,Partly Cloudy,190,2013-06-29 23:52:00
8:52 PM,75.0,66.0,73,29.66,10.0,South,8.1,-,N/A,,Clear,190,2013-06-30 00:52:00
9:52 PM,73.9,66.0,76,29.70,10.0,South,5.8,-,N/A,,Clear,190,2013-06-30 01:52:00
10:52 PM,73.0,66.9,81,29.71,10.0,South,5.8,-,N/A,,Clear,180,2013-06-30 02:52:00
11:52 PM,72.0,66.9,84,29.73,10.0,Calm,Calm,-,N/A,,Clear,0,2013-06-30 03:52:00